Other Surface Observations
Issued by NWS Tucson, AZ

Home | Current Version | Previous Version | Text Only | Print | Product List | Glossary On
Versions: 1 2 3 4 5 6 7 8 9 10 11 12 13 14 15 16 17 18 19 20 21 22 23 24 25 26 27 28 29 30 31 32 33 34 35 36 37 38 39 40 41 42 43 44 45 46 47 48 49 50
000
SXUS55 KTWC 161416
OSOTWC

WEATHER ROUNDUP FOR SOUTHEAST ARIZONA
NATIONAL WEATHER SERVICE TUCSON AZ
715 AM MST TUE SEP 16 2014

AZZ504>506-514-161515-
LOCATION       SKY/WX    TMP DP  RH WIND       PRES   REMARKS
TUCSON         LGT RAIN  72  66  81 SE10      30.05R
DAVIS-MONTHAN  CLOUDY    71  65  82 E6        30.03R
CHILDRENS PARK N/A       77  62  60 SE10              PIMA CO DEQ
ALVERNON/22ND  N/A      N/A N/A N/A N/A               PIMA CO DEQ
CHERRY/GLENN   N/A      N/A N/A N/A N/A               PIMA CO DEQ
TANGERINE      N/A       77 N/A N/A S8                PIMA CO DEQ
CONTL RANCH    N/A       79  62  56 SE10              PIMA CO DEQ
GRANT/1ST      N/A       76  63  64 SE10              PIMA CO DEQ
CRAYCROFT/22ND N/A      N/A N/A N/A N/A               PIMA CO DEQ
GOLFLINKS/KOLB N/A       73  63  72 SE10              PIMA CO DEQ
AJO/12TH       N/A       75  66  74 SE13              PIMA CO DEQ
SAGUARO EAST   N/A      N/A N/A N/A N/A               PIMA CO DEQ
FAIRGROUNDS    N/A       69 N/A N/A SE14              PIMA CO DEQ
SAGUARO        N/A       73  65  76 N2                *SABINO CYN
SAN CARLOS     N/A       77  61  57 SE6G11            *SAN CARLOS
GREEN VALLEY   N/A       69  67  92 N2                PIMA CO DEQ
HORSE CAMP CYN N/A       70  60  71 E13G19            *ARAVAIPA CYN
RINCON MTNS    N/A       52  52  100 E10G14           *NR MANNING CAMP
$$

AZZ509>511-161515-
LOCATION       SKY/WX    TMP DP  RH WIND       PRES   REMARKS
SAFFORD        LGT RAIN  70  64  81 SE12      30.13R
STRAY HORSE    N/A       54  53  96 E5                *
TRAIL CABIN    N/A       60  59  95 E6G10             *N OF GRANVILLE
BLACK HILLS    N/A       75  59  58 SE13G19           *N OF FT THOMAS
DRY LAKE       N/A       56  56  99 SE7G14            *NATANES MTNS
NOON CREEK     N/A       63  62  96 CALM              *PINALENO MTNS
COLUMBINE      N/A       50  48  94 S4                *PINALENO MTNS
GUTHRIE        N/A       58  58  99 E8G15             *SW OF GUTHRIE
$$

AZZ502-503-513-161515-
LOCATION       SKY/WX    TMP DP  RH WIND       PRES   REMARKS
NOGALES        CLOUDY    67  62  84 NE9       30.08R
SELLS          N/A       74  68  83 NE3               *
SASABE         N/A       67  65  93 CALM              *ALTAR VLY
HOPKINS        N/A       57  54  90 E12G20            *SANTA RITA MTNS
CARR CYN       N/A       61  60  96 CALM              *W OF HEREFORD
$$

AZZ507-508-512-161515-
LOCATION       SKY/WX    TMP DP  RH WIND       PRES   REMARKS
SIERRA VISTA   CLOUDY    63  63 100 E3        30.17S
DOUGLAS        CLOUDY    66  64  93 N6        30.14S
EMPIRE MTNS    N/A       63  62  95 NW3G10            *LAS CIENEGAS NCA
MULESHOE RANCH N/A       64  61  89 SE7G14            *PRESERVE
HEADQUARTERS   N/A       62  59  90 NE7G19            *CHIRICAHUA MTNS
$$

.............................NOTES.............................
THIS IS AN AUTOMATED COLLECTIVE WITH MINIMAL QUALITY CONTROL.
PIMA CO DEQ SITES HAVE NONSTANDARD WIND SENSOR HEIGHTS.
PIMA CO DEQ SITES DO NOT REPORT WIND GUSTS.
* INDICATES WIND SENSORS LOCATED AT 20 FEET INSTEAD OF 33 FEET.
..............................KEY..............................
SKY/WX - SKY CONDITION/WEATHER
TMP    - TEMPERATURE IN FAHRENHEIT
DP     - DEWPOINT IN FAHRENHEIT
RH     - RELATIVE HUMIDITY IN PERCENT
WIND   - DIRECTION AND SPEED IN MILES PER HOUR (MPH)
VRB    - VARIABLE WIND DIRECTION
PRES   - MEAN SEA LEVEL PRESSURE IN INCHES OF MERCURY
         F - FALLING PRESSURE   R - RISING PRESSURE
         S - STEADY PRESSURE
VSB    - VISIBILITY IN MILES
HX     - HEAT INDEX IN FAHRENHEIT
WCI    - WIND CHILL INDEX IN FAHRENHEIT
N/A    - NOT AVAILABLE
AFB    - AIR FORCE BASE
         DAVIS-MONTHAN IS DAVIS-MONTHAN AIR FORCE BASE
CYN    - CANYON
MTNS   - MOUNTAINS
NCA    - NATIONAL CONSERVATION AREA
NR     - NEAR
VLY    - VALLEY
CONTL  - CONTINENTAL
PIMA CO DEQ - PIMA COUNTY DEPT OF ENVIRONMENTAL QUALITY



USA.gov is the U.S. government's official web portal to all federal, state and local government web resources and services.